Regional Weather Roundup
Issued by NWS

Home | Current Version | Previous Version | Graphics & Text | Print | Product List | Glossary On
Versions: 1 2 3 4 5 6 7 8 9 10 11 12 13 14 15 16 17 18 19 20 21 22 23 24 25 26 27 28 29 30 31 32 33 34 35 36 37 38 39 40 41 42 43 44 45 46 47 48 49 50
000
ASUS45 KBOI 291410
RWRID
WEATHER ROUNDUP FOR IDAHO
NATIONAL WEATHER SERVICE BOISE ID
700 AM MST THU JAN 29 2015

NOTE: "FAIR" INDICATES FEW OR NO CLOUDS BELOW 12000 FEET
WITH NO SIGNIFICANT WEATHER AND/OR OBSTRUCTIONS TO VISIBILITY

IDZ012-014-291500-
SOUTHWEST IDAHO


CITY           SKY/WX    TMP DP  RH WIND       PRES   REMARKS
BOISE          PTCLDY    34  31  88 S5        30.42R WCI  30
CALDWELL       CLOUDY    36  27  69 SE9       30.45R WCI  29
MOUNTAIN HOME  CLEAR     31  30  96 SE5       30.42S WCI  26
$$

IDZ016-017-291500-
SOUTHCENTRAL IDAHO


CITY           SKY/WX    TMP DP  RH WIND       PRES   REMARKS
BURLEY         CLOUDY    35  33  92 E6        30.40F WCI  30
JEROME         CLOUDY    35  31  85 NE15      30.41F WCI  25
TWIN FALLS     CLOUDY    36  33  89 NE9       30.40S WCI  29
$$

IDZ019>023-291500-
SOUTHEAST IDAHO


CITY           SKY/WX    TMP DP  RH WIND       PRES   REMARKS
IDAHO FALLS    CLOUDY    33  32  96 N6        30.44S FOG     WCI  28
POCATELLO      CLOUDY    33  33 100 E3        30.43S
REXBURG        CLOUDY    32  32 100 NE7       30.44S WCI  26
$$

IDZ006-010-011-018-031-032-291500-
CENTRAL IDAHO MOUNTAINS


CITY           SKY/WX    TMP DP  RH WIND       PRES   REMARKS
MCCALL         CLEAR     17  14  88 CALM      30.37F
HAILEY         PTCLDY    25  23  93 W7        30.42F WCI  17
STANLEY          N/A     12   7  80 E3        30.43S
SALMON         CLOUDY    21  19  93 CALM      30.49R VSB 1/4
CHALLIS        CLOUDY    30  26  85 CALM      30.45S
$$

IDZ002-004-006-007-026-291500-
NORTHERN IDAHO


CITY           SKY/WX    TMP DP  RH WIND       PRES   REMARKS
LEWISTON       FOG       30  30 100 CALM      30.43F VSB 1/4
LOWELL           N/A     32  30  92 CALM      30.51R
COEUR D`ALENE  CLOUDY    34  30  86 NE12      30.42F WCI  25
MULLAN PASS    PTCLDY    28  21  75 SW5       30.33F WCI  23
$$



USA.gov is the U.S. government's official web portal to all federal, state and local government web resources and services.